Temp
63 66 64 63 63 64 61 61 51 57 60 67 71 71 73 74 73 73 73 74 74 72 70 68 66 65 65 63 62 61 58 60 57 56 56 56 53 53 52 51 50 50 49 49
53 62 63 58 63 64 64 64 63 64 62 74 73 73 71 71 73 71 71 73 73 72 69 67 67 65 65 63 61 60 58 57 59 57 57 53 52 51 51 50 50 49 48 48
45 54 52 43 53 59 62 66 65 55 65 72 70 70 69 70 71 70 70 71 71 70 70 68 67 65 63 62 61 59 57 58 57 55 52 51 52 52 50 49 49 48 48 47
43 40 35 58 69 68 63 66 69 69 70 71 67 69 70 72 70 70 70 70 70 69 68 68 68 66 64 64 60 58 57 56 53 52 51 53 52 51 50 49 48 47 47 47
38 43 52 58 64 62 60 59 67 65 66 68 68 68 68 71 71 69 69 69 70 71 69 68 67 67 64 62 60 57 55 52 52 51 53 52 50 49 48 48 47 46 48 46
44 38 35 55 63 67 66 50 66 66 64 64 66 49 59 67 68 68 71 72 71 71 70 68 66 65 61 58 56 53 53 54 53 51 52 50 48 48 47 47 47 47 45 44
43 39 46 64 65 67 47 49 64 65 65 63 59 61 65 68 67 69 70 70 70 69 65 64 64 62 58 55 52 53 52 49 47 50 49 49 47 47 45 44 43 39 37 38
44 35 34 66 63 51 59 65 65 65 65 62 64 65 66 68 68 68 66 67 67 58 55 55 57 57 54 50 49 48 46 45 49 48 49 49 44 43 43 42 39 39 35 35
51 49 63 67 65 69 68 65 64 64 66 66 64 64 66 65 66 64 64 62 57 53 49 50 48 50 45 44 45 45 46 46 45 46 46 45 41 40 40 41 37 36 34 32
54 63 65 67 70 70 69 67 68 68 67 66 63 62 63 64 61 55 57 56 54 50 44 43 44 44 44 45 47 44 42 41 43 41 41 42 43 42 39 36 35 34 33 32
57 62 66 68 66 66 66 66 65 65 63 60 60 61 61 57 55 52 48 48 46 44 43 43 44 44 45 45 44 42 41 40 40 37 39 41 42 40 35 37 35 33 33 33
48 61 59 61 63 63 61 59 60 60 57 57 57 56 51 49 49 46 43 43 42 42 42 43 44 44 45 46 44 40 38 37 37 36 36 39 39 39 39 37 37 37 36 34
59 62 61 61 60 59 56 56 56 54 53 48 49 47 45 41 40 38 40 41 41 43 45 46 46 43 44 43 41 38 37 37 36 35 36 36 35 34 33 36 38 36 35 35
60 60 55 57 53 56 52 50 48 47 46 43 42 42 41 39 41 42 43 46 47 47 45 44 42 42 44 45 43 39 38 36 36 37 37 35 34 34 36 34 34 35 34 34
57 58 55 55 54 49 48 46 43 42 43 43 46 45 46 46 46 47 49 48 46 45 45 45 43 43 46 46 45 40 39 39 38 36 35 34 34 34 34 34 35 34 35 33
55 55 53 49 46 45 45 44 43 43 44 44 43 42 44 45 46 47 48 44 38 37 40 33 33 39 44 45 44 43 42 37 36 38 37 36 35 35 34 34 33 34 33 33
48 45 46 44 43 42 43 44 41 41 41 41 38 34 36 35 38 38 38 37 33 32 33 34 35 42 39 43 44 43 41 41 37 36 36 37 35 34 34 33 34 33 34 34
51 49 47 44 42 42 40 41 39 39 35 36 32 32 31 31 30 32 33 34 33 33 34 37 36 37 40 42 41 39 38 38 39 37 37 35 35 35 34 34 34 33 33 33
48 46 45 44 44 41 38 36 34 33 32 32 32 31 32 32 32 32 32 33 33 34 34 36 34 35 37 37 35 36 35 35 35 36 36 36 34 34 34 34 34 34 33 32
46 45 43 39 37 35 33 33 34 36 34 32 32 32 30 28 30 28 29 31 35 33 35 35 34 34 34 35 33 34 33 32 32 33 32 33 33 34 33 33 33 33 33 32
41 37 34 32 32 32 32 33 32 32 33 30 28 26 26 30 30 28 32 32 33 33 31 31 32 29 29 28 28 31 31 31 31 32 32 32 32 33 32 31 33 32 32 32
38 34 33 33 32 31 32 33 32 30 29 27 25 24 26 30 29 31 28 29 31 27 28 30 26 22 23 23 28 27 27 26 26 29 31 32 32 32 31 30 30 31 32 31
37 34 33 33 32 33 32 31 29 28 26 26 25 27 28 29 31 28 26 30 29 26 27 26 21 19 19 24 23 23 23 21 21 22 23 24 24 25 26 25 25 26 26 25
35 34 33 33 33 34 33 34 35 32 27 30 27 25 28 27 27 30 28 26 24 23 24 24 20 18 20 21 20 19 19 17 16 17 19 19 20 20 21 21 21 21 21 21
34 34 34 34 35 34 34 34 34 33 31 31 30 30 29 30 25 25 25 25 24 23 23 23 20 17 19 19 18 17 17 17 15 15 15 15 16 16 16 16 16 16 17 17
36 35 34 33 32 32 31 31 28 29 28 27 26 27 28 27 26 25 24 23 23 21 21 21 20 19 18 17 17 16 15 15 14 13 13 12 13 13 13 13 14 14 15 15
33 34 34 32 31 30 28 28 26 24 26 23 22 25 26 25 24 23 21 21 20 19 19 19 18 17 16 16 15 14 14 13 12 11 10 10 10 10 11 11 12 13 14 14
MSLP
1007.00 1006.33 1006.35 1006.11 1005.68 1005.73 1005.90 1006.40 1006.83 1006.61 1005.74 1004.95 1004.74 1004.99 1005.16 1005.72 1006.38 1006.94 1007.14 1007.40 1008.06 1009.01 1010.19 1011.62 1013.05 1014.35 1015.46 1016.48 1017.40 1018.16 1019.02 1019.44 1019.62 1019.97 1020.50 1021.09 1021.51 1021.99 1022.30 1022.45 1022.68 1022.70 1022.60 1022.47
1008.29 1007.67 1007.14 1006.76 1006.26 1005.85 1005.72 1005.61 1005.67 1005.50 1005.08 1004.79 1005.12 1005.67 1005.97 1006.39 1006.64 1007.09 1007.53 1007.61 1007.89 1008.79 1009.94 1011.25 1012.50 1013.78 1014.93 1015.98 1017.03 1018.02 1018.90 1019.26 1019.45 1019.84 1020.32 1020.78 1021.45 1021.81 1021.96 1022.09 1022.16 1022.12 1022.12 1022.12
1009.60 1009.38 1008.74 1007.86 1006.69 1006.12 1005.78 1005.44 1005.34 1005.14 1005.16 1005.12 1005.39 1005.85 1006.50 1006.86 1007.06 1007.35 1007.87 1008.21 1008.52 1009.05 1009.86 1010.92 1012.00 1013.13 1014.35 1015.58 1016.69 1017.72 1018.58 1019.13 1019.64 1020.05 1020.70 1021.07 1021.31 1021.50 1021.18 1021.16 1021.44 1021.50 1021.61 1021.76
1010.98 1011.04 1009.50 1007.20 1006.26 1005.90 1005.70 1005.39 1005.14 1005.03 1005.12 1005.43 1006.33 1006.96 1007.37 1007.50 1007.59 1007.85 1007.98 1008.66 1009.02 1009.48 1010.06 1010.78 1011.67 1012.72 1013.95 1015.13 1016.37 1017.62 1018.64 1019.37 1019.94 1020.35 1020.94 1020.85 1020.64 1020.87 1020.96 1020.84 1020.83 1021.00 1021.17 1021.38
1011.60 1010.92 1009.12 1007.60 1006.64 1006.57 1006.22 1006.14 1006.14 1006.21 1006.44 1006.76 1007.47 1007.80 1007.81 1008.06 1008.21 1008.56 1008.75 1009.01 1009.28 1009.54 1009.96 1010.69 1011.57 1012.45 1013.58 1014.84 1016.28 1017.63 1018.68 1019.90 1020.87 1021.43 1020.71 1020.72 1020.75 1020.52 1020.57 1020.68 1020.57 1020.39 1020.48 1020.82
1011.82 1011.21 1009.71 1007.98 1007.62 1007.42 1007.02 1007.00 1007.37 1007.50 1007.80 1008.06 1008.26 1008.74 1008.95 1009.27 1009.44 1009.40 1009.30 1009.31 1009.39 1009.62 1010.01 1010.69 1011.49 1012.45 1013.83 1015.22 1016.51 1018.21 1019.35 1020.17 1020.90 1021.39 1021.48 1021.35 1021.17 1020.67 1020.42 1020.35 1020.34 1020.30 1020.24 1020.75
1011.48 1011.11 1009.59 1007.76 1007.81 1007.84 1007.85 1008.61 1008.38 1008.58 1008.66 1008.84 1009.11 1009.45 1009.61 1009.62 1009.67 1009.88 1010.05 1009.99 1009.98 1010.14 1011.00 1011.42 1011.89 1013.10 1014.81 1016.40 1017.50 1018.38 1019.88 1020.71 1021.40 1021.59 1021.36 1021.05 1020.93 1020.77 1020.56 1020.38 1020.28 1020.30 1020.55 1020.79
1010.82 1010.76 1009.55 1008.14 1008.17 1008.32 1008.50 1008.58 1008.76 1008.94 1009.13 1009.50 1009.72 1009.81 1009.86 1009.86 1009.89 1009.99 1010.67 1011.00 1011.12 1012.16 1013.32 1013.96 1014.06 1014.52 1015.83 1017.52 1018.97 1020.00 1020.58 1021.63 1021.34 1021.29 1021.15 1020.95 1021.02 1021.04 1020.83 1020.58 1020.35 1020.25 1020.59 1021.01
1009.42 1009.00 1008.50 1008.09 1008.16 1008.18 1008.55 1009.01 1009.31 1009.54 1009.66 1009.79 1010.02 1010.20 1010.34 1010.53 1010.67 1011.02 1011.78 1012.47 1013.68 1014.58 1015.57 1016.29 1016.93 1017.40 1018.57 1019.75 1020.60 1021.05 1021.08 1021.16 1021.40 1021.15 1020.92 1020.98 1020.96 1020.97 1020.57 1020.45 1020.12 1019.99 1020.46 1020.95
1008.86 1007.92 1007.90 1007.89 1008.04 1008.29 1008.78 1009.30 1009.61 1009.97 1010.21 1010.43 1010.79 1011.23 1011.47 1011.48 1012.08 1013.29 1013.84 1014.49 1015.50 1016.44 1017.59 1018.39 1018.93 1019.46 1020.26 1020.74 1021.10 1021.43 1021.47 1021.44 1021.25 1021.15 1021.02 1020.81 1020.67 1020.54 1020.45 1020.46 1019.98 1019.87 1020.13 1020.45
1008.41 1008.28 1008.00 1008.08 1008.63 1009.04 1009.65 1010.25 1010.64 1011.12 1011.47 1012.13 1012.32 1012.50 1012.71 1013.46 1014.36 1015.41 1016.36 1017.02 1017.76 1018.46 1019.04 1019.56 1019.87 1020.18 1020.66 1020.95 1021.19 1021.32 1021.36 1021.38 1021.12 1020.94 1020.73 1020.37 1019.96 1019.83 1020.09 1020.29 1020.43 1020.26 1020.13 1020.13
1008.74 1008.94 1009.17 1009.41 1010.00 1010.66 1011.09 1011.80 1012.36 1012.66 1013.17 1013.86 1013.92 1014.32 1015.02 1015.80 1016.62 1017.48 1018.27 1018.81 1019.15 1019.46 1019.72 1019.98 1020.17 1020.21 1020.42 1020.78 1020.94 1021.14 1021.16 1021.11 1021.00 1020.79 1020.55 1020.31 1019.90 1019.63 1019.47 1019.51 1019.75 1019.71 1019.70 1019.83
1009.39 1009.93 1010.27 1010.80 1011.63 1012.33 1012.99 1013.73 1014.20 1014.61 1015.14 1016.03 1016.53 1016.85 1017.35 1018.11 1018.63 1018.95 1019.34 1019.61 1019.75 1019.90 1019.92 1020.01 1020.13 1020.37 1020.51 1020.56 1020.70 1020.87 1020.96 1020.78 1020.55 1020.32 1020.02 1019.87 1019.61 1019.38 1019.46 1019.14 1019.13 1019.07 1018.98 1019.11
1010.66 1010.77 1011.34 1011.95 1013.00 1013.84 1014.94 1015.76 1016.48 1016.95 1017.54 1018.05 1018.51 1018.65 1018.96 1019.31 1019.58 1019.65 1019.73 1019.80 1019.84 1019.99 1020.22 1020.35 1020.38 1020.24 1020.08 1020.02 1019.94 1020.11 1020.25 1020.23 1020.15 1019.82 1019.56 1019.44 1019.37 1019.29 1019.24 1019.03 1018.75 1018.41 1018.31 1018.54
1011.60 1011.99 1012.58 1013.46 1014.45 1015.68 1016.59 1017.29 1017.73 1018.16 1018.69 1019.00 1019.22 1019.32 1019.38 1019.46 1019.52 1019.57 1019.71 1019.97 1020.18 1020.35 1020.33 1020.29 1020.18 1020.03 1019.75 1019.55 1019.47 1019.52 1019.51 1019.33 1019.01 1018.84 1018.85 1018.98 1018.99 1018.89 1018.92 1018.77 1018.38 1017.90 1017.62 1017.45
1012.57 1013.28 1014.12 1015.07 1016.09 1017.00 1017.69 1018.17 1018.53 1019.02 1019.31 1019.65 1020.14 1020.36 1020.32 1020.30 1020.20 1020.10 1020.12 1020.52 1020.71 1020.86 1020.86 1020.92 1020.62 1020.20 1019.82 1019.42 1019.08 1018.76 1018.46 1018.27 1018.15 1018.08 1018.04 1017.93 1017.94 1017.91 1017.86 1017.66 1017.41 1017.13 1016.97 1016.78
1013.57 1014.53 1015.48 1016.36 1017.31 1018.11 1018.63 1019.03 1019.67 1020.06 1020.44 1020.87 1021.35 1021.57 1021.57 1021.41 1021.23 1021.29 1021.39 1021.41 1021.47 1021.40 1021.33 1021.07 1020.59 1020.13 1019.87 1019.38 1018.84 1018.38 1017.90 1017.44 1017.28 1017.14 1016.99 1016.79 1016.76 1016.80 1016.81 1016.68 1016.39 1016.18 1015.92 1015.72
1014.61 1015.49 1016.61 1017.79 1018.37 1018.97 1019.69 1020.20 1020.66 1021.06 1021.70 1022.10 1022.35 1022.45 1022.46 1022.40 1022.48 1022.42 1022.28 1021.95 1021.72 1021.48 1021.25 1020.85 1020.90 1020.48 1020.01 1019.58 1019.16 1018.68 1018.07 1017.49 1017.00 1016.62 1016.29 1016.10 1015.81 1015.75 1015.69 1015.53 1015.36 1015.24 1015.07 1014.97
1016.35 1017.14 1017.93 1018.76 1019.42 1020.14 1020.78 1021.31 1021.69 1022.12 1022.58 1022.81 1022.90 1023.11 1023.19 1023.21 1023.15 1023.01 1022.72 1022.27 1021.86 1021.51 1021.65 1021.39 1021.15 1020.74 1020.25 1019.86 1019.44 1018.84 1018.29 1017.61 1016.79 1016.06 1015.59 1015.06 1014.91 1014.71 1014.57 1014.47 1014.18 1014.20 1014.22 1014.13
1017.33 1018.31 1019.26 1020.14 1020.73 1021.28 1021.92 1022.28 1022.20 1022.61 1023.22 1023.43 1023.54 1023.70 1023.71 1023.61 1023.31 1023.09 1022.81 1022.45 1022.04 1022.38 1022.10 1021.78 1021.38 1020.97 1020.55 1019.98 1019.57 1019.02 1018.39 1017.75 1016.98 1016.18 1015.66 1014.80 1014.02 1013.65 1013.04 1013.08 1013.15 1013.24 1013.31 1013.21
1018.70 1019.71 1020.58 1021.28 1021.95 1022.48 1022.80 1023.05 1023.26 1023.50 1023.73 1023.94 1024.04 1024.15 1024.09 1023.65 1023.32 1023.02 1022.86 1022.69 1022.78 1022.80 1022.70 1022.33 1021.93 1021.84 1021.56 1021.00 1020.17 1019.03 1018.15 1017.37 1016.52 1015.69 1014.92 1014.16 1013.47 1012.93 1012.58 1012.54 1012.54 1012.55 1012.34 1012.53
1019.76 1020.57 1021.35 1022.02 1022.58 1023.12 1023.40 1023.60 1023.79 1023.97 1024.12 1024.22 1024.42 1024.48 1024.23 1023.78 1023.60 1023.52 1023.53 1023.61 1023.50 1023.48 1023.32 1022.94 1023.03 1022.93 1022.30 1021.32 1020.16 1019.48 1018.86 1018.28 1017.32 1015.89 1014.39 1013.54 1012.86 1012.25 1012.02 1012.18 1012.34 1012.12 1011.95 1012.30
1020.44 1021.25 1021.88 1022.43 1022.89 1023.30 1023.68 1023.88 1024.09 1024.26 1024.42 1024.50 1024.67 1024.68 1024.51 1024.46 1024.23 1024.06 1023.98 1024.21 1024.24 1024.22 1023.90 1023.67 1023.60 1023.34 1022.66 1021.76 1021.16 1020.58 1019.92 1019.37 1018.66 1017.66 1016.53 1015.54 1014.59 1014.14 1013.50 1013.47 1013.35 1013.46 1013.46 1013.48
1021.18 1021.86 1022.42 1022.84 1023.08 1023.32 1023.51 1023.78 1023.95 1024.34 1024.60 1024.52 1024.69 1024.92 1024.90 1024.74 1024.83 1024.84 1024.96 1024.87 1024.78 1024.62 1024.40 1024.10 1023.94 1023.69 1023.14 1022.56 1022.10 1021.57 1020.98 1020.58 1020.02 1019.16 1018.35 1017.54 1016.79 1016.13 1015.62 1015.51 1015.39 1014.82 1014.78 1014.55
1021.72 1022.19 1022.60 1022.88 1023.04 1023.51 1023.92 1024.27 1024.21 1024.47 1024.78 1024.88 1025.04 1025.06 1025.12 1025.24 1025.50 1025.52 1025.38 1025.22 1025.06 1024.91 1024.66 1024.41 1024.21 1024.01 1023.76 1023.31 1022.78 1022.36 1021.86 1021.32 1021.04 1020.45 1019.78 1019.17 1018.52 1017.97 1017.62 1017.35 1016.90 1016.32 1015.87 1015.55
1021.81 1022.36 1023.07 1023.50 1024.00 1024.39 1024.78 1024.79 1024.89 1025.02 1025.22 1025.28 1025.55 1025.48 1025.46 1025.65 1025.79 1025.81 1025.67 1025.50 1025.31 1025.18 1024.98 1024.79 1024.59 1024.36 1024.08 1023.78 1023.38 1022.96 1022.58 1022.18 1021.75 1021.41 1020.91 1020.42 1019.79 1019.33 1018.85 1018.35 1017.79 1017.22 1016.73 1016.26
1022.84 1023.00 1023.37 1024.07 1024.75 1025.14 1025.46 1025.45 1025.59 1025.76 1025.68 1026.07 1026.14 1025.95 1025.73 1025.83 1025.92 1025.96 1025.98 1025.81 1025.61 1025.45 1025.33 1025.19 1024.96 1024.68 1024.47 1024.19 1023.87 1023.56 1023.20 1022.90 1022.51 1022.21 1021.86 1021.45 1020.87 1020.40 1019.75 1019.16 1018.47 1017.90 1017.23 1016.68
Wind_Speed
14 15 2 12 7 11 13 10 11 9 14 11 9 5 3 3 7 6 9 13 12 11 11 12 12 11 11 9 8 6 5 8 5 6 5 3 2 3 3 1 4 6 6 6
3 10 14 12 14 13 14 12 13 14 13 9 9 9 7 6 5 3 7 10 5 5 8 11 12 12 11 10 9 8 7 5 2 5 3 4 4 3 4 6 6 5 5 5
2 6 7 6 8 15 15 15 10 10 9 7 2 1 6 5 6 3 6 7 6 3 5 7 10 11 11 9 9 7 6 4 4 5 5 3 6 6 6 6 6 5 6 4
1 1 1 9 2 6 6 9 11 12 9 6 13 10 6 8 6 6 1 4 4 3 4 6 7 9 10 10 10 7 5 3 6 1 4 8 5 6 6 5 5 4 5 5
3 4 7 11 2 2 1 3 11 10 11 12 10 7 5 13 10 8 7 3 4 4 5 6 7 8 11 8 8 7 6 7 5 9 5 6 5 4 4 5 5 5 4 3
3 2 4 1 4 3 1 3 8 9 8 7 6 3 4 10 11 10 8 7 6 5 4 6 6 7 9 7 7 8 4 1 5 12 11 7 6 6 4 4 5 4 2 5
3 2 6 2 4 2 2 3 6 5 6 7 5 5 9 8 4 5 10 12 8 5 8 7 7 9 10 10 9 10 10 11 8 11 6 6 5 5 5 5 5 3 5 4
2 2 7 5 4 3 5 3 7 7 6 5 6 6 7 8 10 6 8 11 12 16 15 15 15 10 12 12 11 8 8 6 9 6 5 5 6 5 6 6 6 3 5 3
8 4 4 5 4 4 1 2 4 4 6 7 8 9 9 9 10 8 7 13 15 14 15 15 16 14 14 11 9 3 7 4 5 6 4 6 3 7 6 6 4 3 4 3
2 4 6 8 3 4 2 3 6 8 8 7 7 9 10 9 10 14 13 15 11 14 14 13 12 12 8 3 2 3 5 6 5 4 5 5 5 4 4 4 3 3 3 3
6 8 7 2 11 10 9 7 8 11 12 13 10 9 9 13 13 13 14 13 12 11 10 10 8 6 3 4 5 5 5 6 6 4 5 5 5 3 2 3 1 2 2 2
3 8 4 8 11 8 10 11 10 9 12 14 13 14 17 14 12 12 10 9 9 8 6 5 4 6 5 4 3 4 5 5 5 4 3 4 5 5 6 7 9 11 8 4
3 6 4 11 13 15 13 12 13 14 14 13 13 13 14 11 9 8 6 5 4 4 3 2 3 3 4 5 5 5 6 6 3 4 4 4 3 2 4 4 9 9 10 10
6 4 9 9 9 12 15 14 15 15 14 12 11 11 9 8 5 4 3 2 0 4 4 4 4 6 5 6 7 6 7 8 7 6 5 3 2 2 4 6 7 5 9 13
7 11 12 12 13 13 13 11 13 12 10 9 8 7 5 5 4 3 5 6 5 5 5 5 6 8 8 7 7 7 7 7 6 3 3 3 2 2 5 8 9 8 7 6
9 10 11 12 12 12 11 11 12 10 8 9 9 10 10 10 10 8 7 9 4 4 7 7 8 10 9 9 11 9 8 9 9 7 7 7 6 7 7 8 8 8 7 8
10 10 11 10 11 11 11 10 10 9 8 8 8 7 8 7 6 9 8 7 5 7 8 8 9 10 8 9 10 8 7 8 8 5 7 8 7 7 8 9 8 8 8 6
14 13 14 12 10 10 8 9 8 8 7 7 6 7 7 7 7 7 8 9 9 9 8 5 9 8 8 10 10 9 9 9 10 9 8 7 7 8 9 8 8 8 8 6
14 13 12 12 10 9 8 7 6 7 7 7 7 8 7 7 8 9 8 10 10 6 9 10 13 12 12 12 10 9 10 12 12 10 10 11 10 9 10 12 10 8 9 7
15 14 13 12 10 8 8 6 3 9 9 8 7 7 5 3 3 4 4 6 5 5 10 13 13 12 14 14 13 11 13 14 13 12 11 12 10 13 10 12 8 8 9 6
12 11 10 10 9 7 7 6 7 7 6 4 4 4 5 6 3 4 7 7 12 13 13 14 13 11 11 14 14 12 13 14 13 13 13 14 11 9 7 5 7 8 6 6
9 9 9 8 8 8 6 6 5 4 5 4 4 4 5 8 8 8 5 8 9 15 11 10 9 15 14 19 11 11 10 11 13 13 12 11 12 12 2 4 5 4 2 2
9 8 7 6 6 7 6 4 5 5 4 3 4 6 7 6 7 8 7 10 8 11 9 8 11 15 18 10 10 11 12 13 12 13 12 12 12 10 9 9 8 7 7 7
9 7 7 6 4 3 5 6 4 5 2 4 5 4 6 6 5 6 7 9 10 10 9 9 9 13 15 9 9 10 10 9 11 11 12 15 11 11 10 10 9 8 8 7
8 7 5 4 4 5 6 6 4 6 7 7 7 7 7 6 5 6 6 7 9 9 8 11 10 9 8 9 9 9 9 8 9 10 10 10 10 10 10 9 9 9 8 8
6 6 6 8 6 5 5 5 4 5 5 5 5 5 5 4 5 6 6 8 7 9 7 8 8 7 7 8 9 9 9 9 9 9 10 10 10 9 9 10 9 9 8 8
7 4 5 6 6 5 5 5 5 5 4 4 5 6 5 5 5 6 7 7 7 7 7 7 7 8 7 8 8 9 8 8 10 9 9 9 9 10 10 10 10 9 9 8
Wind_Direction
270 262 258 298 266 231 235 227 233 249 259 280 356 355 77 65 181 256 284 209 212 200 177 167 180 186 189 179 184 169 200 219 195 145 137 136 196 218 254 225 270 258 266 268
306 294 289 270 278 270 277 265 253 266 265 296 52 25 20 346 312 278 284 300 238 199 171 180 185 186 187 186 180 167 206 233 144 115 136 78 9 278 260 237 245 259 279 282
242 26 349 326 243 254 267 268 259 258 272 309 305 21 21 341 320 253 285 298 299 253 195 191 191 182 188 180 156 174 189 184 174 88 58 251 245 249 248 243 240 245 253 272
119 318 304 247 19 322 291 287 279 282 292 360 55 39 351 314 293 319 287 324 302 260 218 202 191 181 176 176 161 170 174 130 73 78 266 242 237 250 263 259 246 248 247 258
142 216 279 315 198 329 322 342 26 27 24 38 46 4 14 33 31 14 14 347 276 263 205 184 197 183 172 161 150 156 114 62 9 263 349 290 297 312 299 281 274 252 249 203
163 237 222 113 67 356 346 196 56 36 30 359 355 7 23 24 6 351 321 317 310 293 218 202 189 137 135 125 113 82 77 48 36 13 288 336 327 302 302 309 303 288 353 78
154 241 297 72 112 325 235 68 54 10 354 354 339 3 349 343 313 329 336 337 340 351 32 42 107 114 108 86 75 67 53 35 5 267 305 274 309 332 327 305 292 268 127 103
112 147 267 136 120 131 62 0 9 354 356 347 324 317 298 307 327 8 3 340 34 57 53 42 44 77 87 78 66 65 47 329 265 287 304 319 341 315 298 294 274 202 133 137
176 204 146 191 29 32 19 331 330 325 321 334 337 336 339 334 330 48 6 66 65 74 66 53 46 66 74 58 43 334 244 276 303 284 321 306 332 283 284 277 273 154 148 170
47 227 203 206 218 303 68 349 2 353 333 359 352 4 332 349 49 62 46 63 79 78 72 68 64 70 78 101 350 291 274 267 286 302 280 270 268 265 286 328 297 180 171 187
215 255 283 68 53 47 34 6 20 20 36 31 13 358 17 62 64 71 62 60 68 74 77 80 85 92 152 218 247 260 277 276 271 261 265 262 272 230 225 290 217 333 286 201
211 69 11 35 58 38 59 52 41 38 61 45 37 54 67 62 70 76 78 85 91 99 113 129 165 209 225 244 252 258 264 259 246 248 263 278 280 274 215 228 265 275 230 217
30 26 39 78 68 68 70 63 59 59 58 65 59 67 68 75 81 93 112 120 130 159 193 247 356 352 293 268 245 244 259 264 268 265 254 253 264 262 280 269 256 258 248 233
34 322 100 51 96 89 85 82 74 71 71 76 85 87 95 102 116 113 122 157 100 354 0 317 287 280 263 255 246 226 229 244 252 251 252 246 276 296 300 278 275 265 230 234
73 71 87 94 89 86 90 97 93 91 95 90 84 91 113 107 87 51 28 9 6 328 303 299 328 325 321 308 291 265 249 248 246 235 230 231 234 258 274 281 279 268 260 237
99 90 90 95 96 99 100 95 94 92 87 63 49 31 20 13 7 354 359 32 7 334 331 326 297 299 303 299 291 278 270 249 242 243 233 230 227 234 243 247 257 263 257 254
126 128 118 109 102 106 106 78 65 66 57 51 39 26 20 6 359 20 359 1 0 317 301 287 282 307 315 301 299 291 284 274 261 247 240 243 234 233 244 244 254 258 260 246
88 92 108 122 123 101 87 73 58 55 49 40 47 47 41 34 17 355 347 340 337 324 311 318 10 343 327 322 317 303 294 291 289 283 274 248 240 241 242 254 254 252 260 261
103 104 106 100 94 79 74 69 66 83 64 52 53 45 40 27 11 358 344 342 330 344 11 3 353 339 333 331 324 323 321 315 300 283 272 254 247 248 255 262 253 253 254 249
103 92 89 80 65 79 82 65 70 77 56 49 48 40 18 352 338 315 308 325 359 39 353 355 348 340 326 320 329 317 312 305 299 295 301 299 285 263 237 243 251 257 252 241
99 100 95 96 89 78 75 75 80 70 61 53 39 28 348 318 321 296 355 350 18 2 3 348 340 4 352 344 323 311 310 304 293 291 291 291 287 271 272 256 267 263 235 247
109 109 114 111 106 98 86 86 76 66 55 40 46 20 348 6 356 4 345 20 357 16 350 341 14 360 339 328 328 340 343 347 343 328 293 281 276 274 178 43 355 331 29 28
108 109 107 117 115 113 108 96 99 71 36 28 60 32 12 356 358 347 354 7 6 359 345 2 5 359 338 348 349 349 355 0 356 350 353 359 11 13 15 25 23 20 18 21
108 112 117 119 125 112 80 54 57 103 41 18 65 58 12 350 356 9 359 353 3 349 345 356 3 359 348 351 351 352 352 4 355 353 356 2 5 4 11 15 1 13 4 357
123 123 135 175 115 74 53 31 22 38 23 11 18 5 11 14 11 354 349 349 351 352 345 350 356 356 355 349 349 354 352 359 4 354 357 359 357 3 7 2 356 358 357 356
128 98 88 71 67 55 38 29 14 19 7 10 1 346 5 16 8 352 347 344 351 350 351 348 350 353 358 353 351 354 357 355 2 1 356 356 355 359 355 354 350 347 346 342
70 71 114 95 63 48 35 25 15 352 1 40 347 317 350 4 0 359 356 344 348 352 351 348 349 353 2 351 356 356 357 359 354 5 360 353 356 350 348 344 342 344 335 336